[[{"header":{"parameterUnit":"m.s-1","parameterCategory":1,"la1":30.2991,"la2":30.254,"lo1":-89.0895,"lo2":-89.0444,"dy":0.0017,"dx":0.0017,"nx":28,"ny":28,"refTime":"2024-04-24T09:00:00:Z","depth":0,"parameterNumber":2,"parameterNumberName":"U-component_of_WINDS"},"data":[0,0,0,0,0,0,0,0,0,0,0,0,0,0,0,0,0,0,0,0,0,0,0,0,0,0,0,0,0,0,0,0,0,0,0,0,0,0,0,0,0,0,0,0,0,0,0,0,0,0,0,0,0,0,0,0,0,0,-0.8482,-0.8481,0,-0.8407,-0.8406,-0.8405,-0.8364,-0.8364,-0.8364,-0.8364,-0.8285,-0.8283,-0.8281,0,0,0,0,0,0,0,0,0,0,0,0,0,-0.8588,-0.8586,-0.8482,-0.8481,-0.848,-0.8407,-0.8406,-0.8405,-0.8364,-0.8364,-0.8364,-0.8364,-0.8285,-0.8283,-0.828,0,0,0,0,0,0,0,0,0,0,0,0,0,-0.853,-0.8586,-0.8482,-0.8451,-0.8448,-0.8407,-0.8406,-0.8405,-0.8364,-0.8364,-0.8364,-0.8364,-0.8286,-0.8283,-0.828,-0.8264,0,0,-0.8271,-0.827,0,0,0,0,0,0,0,0,-0.8534,-0.8526,-0.8457,-0.8453,-0.8449,-0.8395,-0.8414,-0.8358,-0.8364,-0.8396,-0.8364,-0.8364,-0.8321,-0.8315,-0.8301,-0.8261,-0.8257,-0.8271,-0.8269,-0.8267,-0.8267,0,0,0,0,0,0,0,-0.8538,-0.8529,-0.8452,-0.8456,-0.8451,-0.844,-0.8432,-0.8403,-0.836,-0.8393,-0.839,-0.8382,-0.8319,-0.8305,-0.8299,-0.8256,-0.8271,-0.8268,-0.8266,-0.8265,-0.8198,-0.8198,0,0,0,0,0,0,-0.8547,-0.8533,-0.8455,-0.845,-0.8492,-0.8438,-0.8429,-0.8412,-0.836,-0.8352,-0.8382,-0.838,-0.831,-0.8303,-0.8296,-0.8274,-0.8267,-0.8265,-0.8263,-0.8198,-0.8198,-0.8198,0,0,0,0,0,0,-0.8549,-0.854,-0.8458,-0.8491,-0.8479,-0.8437,-0.8418,-0.8411,-0.8396,-0.8352,-0.8344,-0.8375,-0.8309,-0.8301,-0.8273,-0.8271,-0.8263,-0.826,-0.8198,-0.8198,-0.8198,-0.823,0,0,0,0,0,0,-0.8553,-0.8541,-0.8535,-0.8491,-0.8478,-0.8436,-0.8418,-0.841,-0.8391,-0.8388,-0.8343,-0.8336,-0.8309,-0.8278,-0.827,-0.8267,-0.8258,-0.8198,-0.8198,-0.8198,-0.8229,-0.8232,-0.8234,0,0,0,0,0,-0.8557,-0.8547,-0.8535,-0.8526,-0.8469,-0.8436,-0.8428,-0.8398,-0.8392,-0.8385,-0.8356,-0.8337,-0.8273,-0.8275,-0.8266,-0.8262,-0.8198,-0.8198,-0.8198,-0.8228,-0.8231,-0.8233,0,0,0,0,0,0,-0.8591,-0.854,-0.8527,-0.8503,-0.8474,-0.8429,-0.842,-0.8402,-0.8374,-0.8372,-0.8335,-0.8325,-0.8301,-0.8278,-0.8282,-0.8244,-0.8233,-0.8232,-0.8259,-0.8262,-0.8264,-0.8269,-0.8256,0,0,0,0,0,-0.8596,-0.8574,-0.8531,-0.8513,-0.85,-0.8463,-0.8447,-0.8426,-0.8394,-0.8382,-0.8351,-0.8321,-0.8294,-0.8276,-0.8249,-0.8226,-0.8215,-0.8219,-0.8221,-0.8223,-0.8222,-0.8208,-0.8209,-0.8199,-0.8199,-0.8199,0,0,-0.8606,-0.8576,-0.8564,-0.852,-0.8495,-0.8472,-0.8452,-0.8429,-0.8412,-0.8378,-0.835,-0.8327,-0.829,-0.8265,-0.8252,-0.8246,-0.8222,-0.8223,-0.8225,-0.8223,-0.8208,-0.8209,-0.821,-0.8199,-0.8199,-0.8199,0,0,-0.8612,-0.8587,-0.857,-0.8546,-0.851,-0.8485,-0.8481,-0.8439,-0.8422,-0.8394,-0.8368,-0.8347,-0.8301,-0.8276,-0.8257,-0.8255,-0.8236,-0.8247,-0.8258,-0.8245,-0.8246,-0.8246,-0.8245,-0.8245,-0.8246,-0.8246,-0.8246,0,-0.8629,-0.8594,-0.8564,-0.8542,-0.8523,-0.8493,-0.8475,-0.8453,-0.8409,-0.8396,-0.839,-0.8332,-0.8305,-0.8274,-0.8273,-0.8259,-0.8253,-0.8251,-0.8248,-0.8248,-0.8248,-0.8247,-0.8247,-0.8247,-0.8247,-0.8247,-0.8247,0,-0.8616,-0.8593,-0.8584,-0.8543,-0.8523,-0.8504,-0.8469,-0.8453,-0.8434,-0.841,-0.8382,-0.8348,-0.8314,-0.8305,-0.8286,-0.8271,-0.8268,-0.8255,-0.8244,-0.8251,-0.825,-0.8249,-0.825,-0.8249,-0.8249,-0.8248,0,0,-0.8642,-0.8585,-0.8582,-0.8564,-0.8521,-0.8502,-0.8481,-0.8448,-0.8435,-0.8406,-0.8387,-0.8349,-0.8337,-0.8316,-0.8294,-0.8283,-0.8283,-0.8272,-0.827,-0.8275,-0.8265,-0.8274,-0.8274,-0.8271,-0.8271,-0.8271,-0.8268,0,-0.8642,-0.8604,-0.8576,-0.8548,-0.8526,-0.8497,-0.8478,-0.845,-0.8427,-0.8405,-0.8379,-0.8353,-0.8339,-0.8326,-0.8314,-0.8286,-0.8281,-0.8286,-0.8252,-0.8252,-0.8262,-0.8273,-0.8283,-0.8282,-0.8267,-0.8267,-0.8267,0,-0.8636,-0.8609,-0.858,-0.8541,-0.853,-0.8514,-0.8482,-0.8461,-0.8428,-0.8412,-0.839,-0.8367,-0.8343,-0.8334,-0.8301,-0.8305,-0.829,-0.8274,-0.8273,-0.8268,-0.8259,-0.8269,-0.8281,-0.8281,-0.8265,-0.8265,-0.8265,0,-0.8658,-0.8614,-0.8591,-0.8576,-0.8529,-0.8519,-0.8499,-0.8466,-0.8448,-0.842,-0.8408,-0.8377,-0.836,-0.8336,-0.8306,-0.8302,-0.8275,-0.8264,-0.8261,-0.8262,-0.8256,-0.8257,-0.8266,-0.8247,-0.8247,-0.8247,-0.8247,0,-0.866,-0.8643,-0.86,-0.8585,-0.8566,-0.8533,-0.8514,-0.8492,-0.8463,-0.8443,-0.8416,-0.8398,-0.8359,-0.8336,-0.8312,-0.8288,-0.828,-0.8266,-0.826,-0.8269,-0.8271,-0.8258,-0.8257,-0.8247,-0.8247,-0.8247,-0.8247,0,-0.8681,-0.8651,-0.8624,-0.8582,-0.8571,-0.8559,-0.8523,-0.8507,-0.8483,-0.8459,-0.8451,-0.8413,-0.8385,-0.8352,-0.8313,-0.8297,-0.8274,-0.8265,-0.8286,-0.8282,-0.8281,-0.8282,-0.8282,-0.828,-0.8263,-0.8263,-0.8263,0,-0.8684,-0.8671,-0.8628,-0.8614,-0.8595,-0.8572,-0.8554,-0.8521,-0.8504,-0.8466,-0.8455,-0.8425,-0.8399,-0.8355,-0.8324,-0.8294,-0.8283,-0.8286,-0.8279,-0.8288,-0.8283,-0.8284,-0.8283,-0.8288,-0.8288,-0.8288,-0.8288,0,-0.8694,-0.868,-0.8656,-0.8627,-0.8606,-0.8581,-0.8555,-0.8545,-0.8507,-0.8488,-0.846,-0.844,-0.84,-0.8371,-0.8337,-0.8315,-0.8295,-0.8291,-0.8289,-0.8297,-0.8309,-0.8303,-0.8291,-0.8291,-0.8291,-0.8291,-0.829,-0.829,-0.8705,-0.8692,-0.8661,-0.8635,-0.8612,-0.8588,-0.8572,-0.8547,-0.8523,-0.8489,-0.8471,-0.8443,-0.841,-0.8363,-0.8342,-0.8319,-0.8312,-0.8309,-0.8308,-0.8308,-0.831,-0.8314,-0.8313,-0.8312,-0.8312,-0.8312,-0.8312,0,-0.8714,-0.8692,-0.8669,-0.8634,-0.8613,-0.8598,-0.8568,-0.8552,-0.8527,-0.8499,-0.8475,-0.8442,-0.8413,-0.838,-0.8349,-0.8337,-0.8327,-0.833,-0.833,-0.8326,-0.8318,-0.8323,-0.8338,-0.8338,-0.8338,-0.8338,-0.8338,-0.8338,-0.8715,-0.8692,-0.8675,-0.864,-0.8618,-0.8591,-0.8576,-0.8554,-0.8531,-0.8496,-0.8473,-0.8452,-0.8421,-0.8388,-0.8361,-0.8352,-0.8341,-0.8347,-0.8335,-0.8328,-0.8326,-0.8324,-0.8329,-0.8345,-0.8345,-0.8345,-0.8345,-0.8345]},{"header":{"parameterUnit":"m.s-1","parameterCategory":1,"la1":30.2991,"la2":30.254,"lo1":-89.0895,"lo2":-89.0444,"dy":0.0017,"dx":0.0017,"nx":28,"ny":28,"refTime":"2024-04-24T09:00:00:Z","depth":0,"parameterNumber":3,"parameterNumberName":"V-component_of_WINDS"},"data":[0,0,0,0,0,0,0,0,0,0,0,0,0,0,0,0,0,0,0,0,0,0,0,0,0,0,0,0,0,0,0,0,0,0,0,0,0,0,0,0,0,0,0,0,0,0,0,0,0,0,0,0,0,0,0,0,0,0,0.2849,0.2848,0,0.2791,0.279,0.2789,0.2755,0.2754,0.2754,0.2754,0.2693,0.2692,0.269,0,0,0,0,0,0,0,0,0,0,0,0,0,0.2931,0.2929,0.2849,0.2848,0.2848,0.2791,0.279,0.2789,0.2755,0.2754,0.2754,0.2754,0.2694,0.2692,0.269,0,0,0,0,0,0,0,0,0,0,0,0,0,0.2886,0.2929,0.2849,0.2824,0.2821,0.2791,0.279,0.2789,0.2755,0.2754,0.2754,0.2754,0.2694,0.2692,0.269,0.268,0,0,0.2683,0.2682,0,0,0,0,0,0,0,0,0.2888,0.2883,0.2828,0.2825,0.2822,0.278,0.2796,0.2752,0.2755,0.278,0.2754,0.2754,0.2722,0.2717,0.2707,0.2677,0.2675,0.2683,0.2681,0.268,0.268,0,0,0,0,0,0,0,0.2892,0.2885,0.2826,0.2827,0.2824,0.2815,0.2808,0.2788,0.2753,0.2778,0.2775,0.2768,0.272,0.2709,0.2705,0.2674,0.2683,0.2681,0.2679,0.2679,0.2634,0.2634,0,0,0,0,0,0,0.2899,0.2888,0.2828,0.2824,0.2855,0.2814,0.2806,0.2793,0.2753,0.2747,0.2769,0.2767,0.2713,0.2708,0.2703,0.2689,0.268,0.2678,0.2677,0.2634,0.2634,0.2634,0,0,0,0,0,0,0.2901,0.2894,0.283,0.2855,0.2847,0.2812,0.2798,0.2792,0.2781,0.2746,0.274,0.2764,0.2713,0.2706,0.2686,0.2687,0.2677,0.2675,0.2634,0.2634,0.2634,0.2662,0,0,0,0,0,0,0.2903,0.2895,0.2891,0.2856,0.2845,0.2815,0.2798,0.2791,0.2778,0.2775,0.274,0.2734,0.2712,0.269,0.2684,0.2683,0.2674,0.2634,0.2634,0.2634,0.2661,0.2663,0.2665,0,0,0,0,0,0.2906,0.2901,0.2891,0.2884,0.284,0.2815,0.2809,0.2784,0.2778,0.2774,0.2751,0.2735,0.2688,0.2688,0.2681,0.268,0.2634,0.2634,0.2634,0.266,0.2663,0.2665,0,0,0,0,0,0,0.2937,0.2896,0.2884,0.2867,0.2845,0.2809,0.2803,0.2788,0.2767,0.2765,0.2735,0.2727,0.2711,0.2693,0.2694,0.2669,0.2659,0.2658,0.2681,0.2683,0.2685,0.269,0.2672,0,0,0,0,0,0.2941,0.2925,0.289,0.2878,0.2868,0.2837,0.2826,0.2809,0.2784,0.2774,0.275,0.2727,0.2707,0.2694,0.2674,0.2659,0.2651,0.2654,0.2657,0.2659,0.2658,0.2649,0.265,0.2636,0.2636,0.2636,0,0,0.2951,0.2926,0.2918,0.2884,0.2864,0.2848,0.283,0.2813,0.28,0.2771,0.2752,0.2733,0.2705,0.2688,0.2679,0.2673,0.266,0.2659,0.2661,0.2659,0.2649,0.2651,0.2652,0.2636,0.2636,0.2636,0,0,0.296,0.294,0.2928,0.2909,0.288,0.286,0.2858,0.2824,0.2811,0.2791,0.2769,0.2754,0.272,0.2701,0.2686,0.2689,0.2673,0.2683,0.2694,0.2686,0.2687,0.2688,0.2689,0.2689,0.2683,0.2683,0.2683,0,0.2975,0.2949,0.2923,0.2908,0.2894,0.2868,0.2856,0.2839,0.2804,0.2795,0.2789,0.2746,0.2725,0.2703,0.2704,0.2693,0.2689,0.2687,0.2689,0.2689,0.269,0.269,0.2691,0.2684,0.2684,0.2684,0.2684,0,0.2969,0.2952,0.2946,0.2914,0.2899,0.2885,0.2858,0.2845,0.283,0.2811,0.2791,0.2765,0.2739,0.2732,0.2717,0.2708,0.2706,0.2695,0.2684,0.2693,0.2693,0.2693,0.2686,0.2686,0.2685,0.2685,0,0,0.2995,0.295,0.2948,0.2934,0.29,0.2886,0.2871,0.2846,0.2837,0.2814,0.2801,0.2773,0.2763,0.2747,0.2729,0.2722,0.2725,0.2711,0.271,0.2715,0.2715,0.2723,0.2724,0.2715,0.2715,0.2715,0.2717,0,0.2999,0.2971,0.2948,0.2929,0.2912,0.2888,0.2875,0.2853,0.2835,0.2818,0.2798,0.2779,0.2767,0.2757,0.2749,0.2727,0.2725,0.2726,0.2702,0.2701,0.271,0.2724,0.2732,0.2735,0.2717,0.2717,0.2717,0,0.2999,0.2978,0.2958,0.2927,0.2919,0.2908,0.2883,0.2868,0.2843,0.283,0.2813,0.2794,0.2777,0.2768,0.2745,0.2746,0.2735,0.2723,0.2722,0.2719,0.271,0.272,0.2736,0.2736,0.2716,0.2716,0.2716,0,0.302,0.2987,0.297,0.2959,0.2922,0.2915,0.2899,0.2874,0.286,0.2839,0.283,0.2807,0.2794,0.2776,0.2752,0.2748,0.2731,0.272,0.272,0.272,0.2717,0.2717,0.2731,0.271,0.271,0.271,0.271,0,0.3026,0.3015,0.2979,0.2969,0.2955,0.2929,0.2916,0.2898,0.2876,0.2862,0.2839,0.2826,0.2795,0.2779,0.2759,0.2743,0.2737,0.2726,0.2721,0.2728,0.273,0.272,0.2719,0.271,0.271,0.271,0.271,0,0.3047,0.3023,0.3003,0.297,0.2962,0.2953,0.2925,0.2914,0.2895,0.2877,0.2872,0.2842,0.2821,0.2795,0.2766,0.2753,0.2738,0.2731,0.2747,0.2744,0.2745,0.2745,0.2753,0.2752,0.2733,0.2733,0.2733,0,0.3053,0.3043,0.301,0.2999,0.2984,0.2967,0.2953,0.2927,0.2914,0.2885,0.2878,0.2856,0.2836,0.2804,0.2779,0.2757,0.2749,0.2753,0.2745,0.2753,0.2749,0.275,0.2749,0.2755,0.2755,0.2756,0.2756,0,0.3065,0.3054,0.3036,0.3013,0.2998,0.2979,0.2959,0.2951,0.2921,0.2907,0.2886,0.2871,0.2842,0.282,0.2795,0.2778,0.2762,0.2759,0.2757,0.2764,0.2774,0.2769,0.2752,0.2758,0.2758,0.2758,0.2758,0.2758,0.3078,0.3069,0.3044,0.3025,0.3007,0.2989,0.2978,0.2957,0.2939,0.2914,0.2899,0.2879,0.2854,0.2818,0.2803,0.2786,0.278,0.2778,0.2778,0.2777,0.278,0.2777,0.2781,0.2781,0.2781,0.2781,0.2781,0,0.309,0.3073,0.3055,0.3029,0.3013,0.3,0.2977,0.2965,0.2947,0.2926,0.2908,0.2884,0.2863,0.2837,0.2814,0.2805,0.2797,0.28,0.28,0.2797,0.2786,0.279,0.2807,0.2807,0.2807,0.2807,0.2807,0.2807,0.3094,0.3078,0.3064,0.3038,0.3021,0.3001,0.299,0.2973,0.2956,0.293,0.2913,0.2896,0.2873,0.2848,0.2828,0.2821,0.2813,0.2819,0.2809,0.28,0.2798,0.2795,0.2798,0.2817,0.2817,0.2821,0.2821,0.2821]}]]